Find Starlink 3048

NORAD ID: 49148 Int'l Des: 2021-082 Owner: SPXS Country: US Constellation: starlink operational
LEOCIRCULAR

当前视图

正在加载3D地球...

About Starlink 3048

Starlink 3048 (NORAD 49148) is a starlink constellation satellite (v1.5) launched Sep 14, 2021 by SPXS of US. It operates in LEO, CIRCULAR orbit with a mass of 297.00 kg.

关于 Starlink 3048

正在加载描述...

即将过境

Passes for default location (London). Set your location on the main map for personalized predictions.

高度历史

Loading altitude history...

两行轨道根数

1 49148U 21082U 26166.92089059 -.00000240 00000-0 -12612-4 0 9996
2 49148 69.9998 27.8659 0002190 265.2399 94.8510 14.97520743261157
Epoch: Jun 15, 2026 • Age: 8 hours

当前状态

高度 587.3 km
速度 7.57 km/s
星下点 68.59°N, 92.62°E
发射日期 Sep 14, 2021
运行时间 4.7 years
类型 internet

技术详情

分类 Payload
质量 297.00 kg
干质量 275.00 kg
总质量 297.00 kg
长度 0.20 m
直径 2.80 m
跨度 9.00 m
形状 Box + pan
制造商 SPXS
平台类型 Starlink
阶段状态 In Orbit
所有者/国家 SPXS/US

Most Searched